User: anonymous   Login
Location: Unspecified
(0.0000°N, 0.0000°E)
Time: 11:08:06
(UTC+00:00)
Language:

TMSAT-1 - Orbit

View from above orbital plane
View from above orbital plane
View from above satellite
View from above satellite

Ground track
Ground track

The orbit data is extracted from the following two-line orbital elements,

1 25396U 98043C   21170.66126823  .00000001  00000-0  19439-4 0  9995
2 25396  98.7488 116.0394 0003503  49.6873 310.4611 14.24588396192270
Epoch (UTC): 19 June 2021 15:52:13
Eccentricity: 0.0003503
inclination: 98.7488°
perigee height: 807 km
apogee height: 812 km
right ascension of ascending node: 116.0394°
argument of perigee: 49.6873°
revolutions per day: 14.24588396
mean anomaly at epoch: 310.4611°
orbit number at epoch: 19227

The dashed part of the orbit path shows where the satellite is in the earth's shadow,  

DLR